Regional Weather Roundup
Issued by NWS

Home | Current Version | Previous Version | Graphics & Text | Print | Product List | Glossary On
Versions: 1 2 3 4 5 6 7 8 9 10 11 12 13 14 15 16 17 18 19 20 21 22 23 24 25 26 27
000
ASUS45 KPSR 292310
RWRAZ

ARIZONA HOURLY REGIONAL WEATHER ROUNDUP
NATIONAL WEATHER SERVICE PHOENIX AZ
400 PM MST SUN MAY 29 2016

NOTE: FAIR INDICATES FEW OR NO CLOUDS BELOW 12,000 FEET WITH NO
SIGNIFICANT WEATHER AND/OR OBSTRUCTIONS TO VISIBILITY.

AZZ001>003-036-300000-
NORTHWEST ARIZONA

CITY           SKY/WX    TMP DP  RH WIND       PRES   REMARKS
BULLHEAD CITY  SUNNY     93  25   8 S13       29.80F
KINGMAN        SUNNY     84  21  10 SW9       29.95F
$$

AZZ004>008-015-016-018-300000-
NORTH CENTRAL ARIZONA

CITY           SKY/WX    TMP DP  RH WIND       PRES   REMARKS
GRAND CANYON   MOSUNNY   77  12   8 S10G23    30.12F
WILLIAMS       SUNNY     73  18  12 S10G18    30.21F
PRESCOTT       SUNNY     80  12   7 SE17G23   30.04F
FLAGSTAFF      SUNNY     71  16  12 SW18G24   30.17S
PAYSON         SUNNY     81  16   9 S8G18     30.08F
PAGE           SUNNY     88   6   4 SE12      29.94F
$$

AZZ009>014-017-300000-
NORTHEAST ARIZONA

CITY           SKY/WX    TMP DP  RH WIND       PRES   REMARKS
WINSLOW        SUNNY     85  14   7 SE10G25   30.00F
SAINT JOHNS    SUNNY     82  15   8 N3G25     30.04F
WINDOW ROCK    SUNNY     78  13   8 SW6       30.12F
SHOW LOW       SUNNY     73  10   9 SW14G26   30.14F
$$

AZZ023-300000-
GREATER PHOENIX AREA

CITY           SKY/WX    TMP DP  RH WIND       PRES   REMARKS
PHOENIX        SUNNY     97  17   5 S10       29.80F
BUCKEYE        SUNNY     93  18   6 S9        29.83F
GLENDALE       SUNNY     97  14   5 NE6       29.82F
LUKE AFB       SUNNY     96  15   5 S15       29.79F
DEER VALLEY    SUNNY     94  20   7 SW10G18   29.83F
SCOTTSDALE     SUNNY     93  21   7 VRB5G16   29.85F
MESA-GATEWAY   SUNNY     93  25   8 SW8       29.84F
CHANDLER       SUNNY     95  19   6 SE7       29.82F
$$

AZZ027-028-300000-
SOUTHWEST MARICOPA COUNTY AND PINAL COUNTY

CITY           SKY/WX    TMP DP  RH WIND       PRES   REMARKS
CASA GRANDE    SUNNY     97  32  10 SW17G30   29.84F
GILA BEND      FAIR      96  15   5 SW13G20   29.79F
$$

AZZ503-504-507>509-300000-
SOUTHEAST ARIZONA

CITY           SKY/WX    TMP DP  RH WIND       PRES   REMARKS
TUCSON         SUNNY     94  12   5 SW10G28   29.91F
DAVIS-MONTHAN  SUNNY     94  13   5 SW17      29.89F
RYAN FIELD     SUNNY     95  14   5 SW15G24   29.89F
NOGALES        SUNNY     89  18   7 S22G28    30.00F
SIERRA VISTA   SUNNY     86  19   8 SW18G25   30.05S
DOUGLAS        SUNNY     89  22   8 SW18G25   30.00F
SAFFORD        SUNNY     93  14   5 VRB6G17   29.89F
$$

AZZ020-021-025-026-031-300000-
SOUTHWEST ARIZONA

CITY           SKY/WX    TMP DP  RH WIND       PRES   REMARKS
YUMA           SUNNY     92  30  11 S13       29.81F
$$

CAZ031-033-041-043-047-048-061-300000-
SOUTHERN CALIFORNIA

CITY           SKY/WX    TMP DP  RH WIND       PRES   REMARKS
DOWNTOWN L.A.  SUNNY     69  54  58 VRB3      29.96F
L.A. AIRPORT   MOSUNNY   66  54  65 W16       29.98F
SAN DIEGO      CLOUDY    67  54  63 W8        30.00F
BURBANK        SUNNY     71  53  52 S12G18    29.94F
ONTARIO        MOSUNNY   73  52  47 W8        29.95F
RIVERSIDE      SUNNY     74  52  46 VRB5      29.95F
PALM SPRINGS   SUNNY     91  38  15 NE9       29.83F
EL CENTRO NAS  SUNNY     90  45  21 SE7       29.80F
IMPERIAL       SUNNY     92  50  23 VRB6      29.79F
BLYTHE         SUNNY     92  29  10 SW9       29.80F
NEEDLES        SUNNY     95  24   8 W8        29.81F
$$

NVZ020-UTZ003-300000-
SOUTHERN NEVADA-UTAH

CITY           SKY/WX    TMP DP  RH WIND       PRES   REMARKS
LAS VEGAS      MOSUNNY   92  24   8 SE9       29.81F
SALT LAKE CITY PTSUNNY   78  33  19 CALM      29.98F
$$

NMZ009-TXZ055-300000-
NEW MEXICO-WEST TEXAS

CITY           SKY/WX    TMP DP  RH WIND       PRES   REMARKS
ALBUQUERQUE    MOSUNNY   85  15   7 S15G25    30.03F
EL PASO        MOSUNNY   93  23   8 SW13      29.98F
$$


........................KEY........................
SKY/WX - SKY CONDITION/WEATHER
TMP    - TEMPERATURE IN FAHRENHEIT
DP     - DEW POINT IN FAHRENHEIT
RH     - RELATIVE HUMIDITY IN PERCENT
WIND   - DIRECTION AND SPEED IN MILES PER HOUR (MPH)
VRB    - VARIABLE WIND DIRECTION
PRES   - MEAN SEA LEVEL PRESSURE IN INCHES OF MERCURY
         F - FALLING PRESSURE   R - RISING PRESSURE
         S - STEADY PRESSURE
VSB    - VISIBILITY IN MILES
HX     - HEAT INDEX IN FAHRENHEIT
WCI    - WIND CHILL INDEX IN FAHRENHEIT
TC     - TEMPERATURE IN CELSIUS WHICH IS ALSO KNOWN AS
         TEMPERATURE IN CENTIGRADE
AFB    - AIR FORCE BASE
         LUKE AFB IS LUKE AIR FORCE BASE
         DAVIS-MONTHAN IS DAVIS-MONTHAN AIR FORCE BASE
NAS    - NAVAL AIR STATION
         EL CENTRO NAS IS EL CENTRO NAVAL AIR STATION
N/A    - NOT AVAILABLE





USA.gov is the U.S. government's official web portal to all federal, state and local government web resources and services.